Printer-friendly version
Follow the MPC on Twitter Follow the MPC on Facebook The MPC blog
Minor Planet Center

MPEC 2000-F44 : 1999 RD32

The following Minor Planet Electronic Circular may be linked-to from your own Web pages, but must not otherwise be redistributed electronically.

A form allowing access to any MPEC is at the bottom of this page.


Read MPEC 2000-F43 Read MPEC 2000-F45


M.P.E.C. 2000-F44                                Issued 2000 Mar. 30, 18:46 UT

     The Minor Planet Electronic Circulars contain information on unusual
         minor planets and routine data on comets.  They are published
   on behalf of Commission 20 of the International Astronomical Union by the
          Minor Planet Center, Smithsonian Astrophysical Observatory,
                          Cambridge, MA 02138, U.S.A.

             Prepared using the Tamkin Foundation Computer Network

             BMARSDEN@CFA.HARVARD.EDU or GWILLIAMS@CFA.HARVARD.EDU
          URL http://cfa-www.harvard.edu/iau/mpc.html  ISSN 1523-6714

                                   1999 RD32

                           Revision to MPEC 1999-R32

Observations:
     J99R32D 1 1995 01 02.48889 11 40 44.85 +01 53 45.8                      675
     J99R32D 1 1995 01 02.53750 11 40 52.21 +01 52 39.4                      675

Observer details:
675 Palomar Mountain.  Observers J. Mueller, J. D. Mendenhall.  Trail located
    and measured by A. Boattini, G. Forti, M. Tombelli, L. Tesi.  0.46-m
    Schmidt.

First and last observations above in comparison with prediction:
Residuals in seconds of arc (or two decimals in degrees), reference and Delta-T
950102 675 0.40+ 0.21-    950102 675 0.40+ 0.21-    MPC 38073   -0.41 day

Orbital elements:
1999 RD32                                                            PHA 0.044
Epoch 2000 Feb. 26.0 TT = JDT 2451600.5                 Williams
M  58.48220              (2000.0)            P               Q
n   0.23249996     Peri.  294.80911     -0.34238157     +0.93599226
a   2.6193134      Node   314.90620     -0.81493833     -0.33917615
e   0.7784719      Incl.    6.63315     -0.46760067     -0.09422327
P   4.24           H   16.3           G   0.15           U   3
Residuals in seconds of arc
950102 675  0.8+  0.2+    990912 360  0.1-  0.3-    991001 587  0.2+  0.3-
950102 675  0.6-  0.3+    990912 360  0.1+  0.2-    991001 118  0.3-  0.4-
990908 704  0.3+  0.4-    990912 360  0.1-  0.3-    991001 118  0.2-  0.2-
990908 704  0.3+  1.0-    990912 587  0.5-  0.5-    991001 118  0.1-  0.4-
990908 704  0.4+  0.6-    990912 587  0.5+  0.3+    991002 118  0.5+  0.1-
990908 704  0.5+  0.7-    990913 704  0.9-  0.3-    991002 118  0.0   0.1-
990908 704  0.6+  0.9-    990913 704  0.1+  0.2+    991003 704  0.1-  1.0-
990909 557  0.1-  0.4-    990913 704  1.2+  0.5+    991003 704  0.0   0.8-
990909 557  0.2-  0.3-    990913 848  0.2+  0.2+    991003 704  0.4-  0.8-
990909 557  0.3-  0.5-    990913 848  0.2-  0.1-    991003 704  0.3-  0.8-
990909 118  0.7-  0.1+    990913 704  0.5+  0.0     991003 704  0.3-  1.0-
990909 118  1.4-  0.3-    990913 848  0.1+  0.3-    991003 703 (2.9-  6.2+)
990909 118  0.4-  0.0     990913 704  0.1-  0.0     991003 703  0.6-  0.5-
990909 046  0.0   0.2+    990914 046  0.4-  0.1+    991003 703  0.0   0.6+
990909 046  0.1-  0.1+    990914 046  0.4-  0.3+    991003 703  0.5-  0.5+
990909 046  0.2-  0.0     990914 046  0.5-  0.3+    991007 470  0.4-  1.4+
990909 046  0.0   0.1+    990914 704  0.2+  0.1+    991007 470  1.6+  1.5+
990909 670  1.3-  0.1-    990914 704  0.1+  0.1+    991007 470 (0.5-  2.1+)
990909 704  0.0   0.3-    990914 704  0.3-  0.1+    991008 118  0.1+  0.4+
990909 704  0.2-  0.4-    990914 704  1.3-  0.0     991008 118  0.2+  0.4+
990909 704  0.3+  0.5-    990914 704  0.3-  0.2+    991008 699  0.4+  1.7+
990909 704  0.0   0.4-    990914 658  0.2+  0.4-    991008 699  0.2+  1.0+
990909 670  1.2-  1.0+    990914 658  0.2+  0.5-    991008 699  0.0   1.3+
990909 670  0.1+  1.2+    990914 658  0.1+  0.0     991008 360  0.3+  0.0
990909 704  0.1-  0.4-    990914 118  1.7+  0.6+    991008 360  0.4+  0.3+
990909 704  0.3-  0.5-    990914 118  1.0+  0.6-    991008 360  0.2+  0.2+
990909 704  0.1-  0.7-    990914 118  0.7+  0.0     991008 108  0.1-  1.1-
990909 704  0.1+  0.3-    990915 658  0.4+  0.6+    991008 108  1.8+  0.2-
990909 704  0.2+  0.1-    990915 658  0.4+  0.5+    991008 108  1.4-  1.9-
990909 704  0.1-  0.2-    990915 658  0.3+  0.2+    991009 703  1.7-  0.7+
990909 108  0.1+  0.7+    990915 848  0.4-  0.4-    991009 703  0.2-  0.5+
990909 108  0.0   0.6+    990915 848  0.1+  0.2+    991009 703  0.5-  0.7+
990909 108 (2.1-  1.1-)   990915 848  0.3+  0.6+    991009 703  0.2+  0.2+
990909 118  0.3-  0.2-    990915 595  0.2-  0.9+    991010 704  0.2+  0.2+
990909 118  0.1-  0.4-    990915 595  0.5-  0.7+    991010 704  0.2+  0.0
990909 118  0.4-  0.2-    990915 595  0.5+  0.7+    991010 704  0.6-  1.0-
990910 946  1.6+  0.1-    990915 595  0.2-  0.8+    991010 704  0.3+  0.3+
990910 946  1.7+  0.2+    990916 118  0.1-  0.5+    991010 704  0.4+  0.3-
990910 046  0.1+  0.1+    990916 118  0.3-  0.7+    991011 595  0.9-  0.4-
990910 046  0.3-  0.1+    990916 848  0.1+  0.6+    991011 595  0.6-  0.6-
990910 046  0.1-  0.1-    990916 848  0.2+  0.4+    991011 595  0.1-  0.8-
990910 557  0.5-  0.1+    990916 848  0.3-  0.7-    991011 595  1.1-  0.0
990910 557  0.4-  0.3+    990917 848  0.2+  0.9+    991011 595  0.5+  0.8-
990910 557  0.3-  0.0     990917 848  0.1-  0.6+    991012 118  0.0   0.3-
990910 106  0.0   0.5+    990917 848  0.1-  0.4+    991012 118  0.0   0.2+
990910 106  0.2-  0.2+    990918 704  0.5+  0.7-    991012 071  0.3+  0.6+
990910 106  0.0   0.4+    990918 704  0.6+  0.7-    991012 071  0.5+  0.6+
990910 620  0.8-  0.3+    990918 704  0.6+  0.7-    991012 071  0.7-  0.3+
990910 620  0.6-  0.0     990918 704  0.3+  0.2-    991014 595  0.5-  0.6-
990910 620  0.1-  0.2+    990918 704  0.4+  0.6-    991014 595  0.6-  0.3-
990910 108  0.3-  1.3-    990919 848  0.4-  0.1+    991014 595  0.0   0.5-
990910 108  1.2-  1.5+    990919 848  0.1-  0.0     991016 658  0.2+  0.4+
990910 108  0.1-  2.0-    990919 848  0.1-  0.1+    991016 658  0.2+  0.3+
990911 046  0.2-  0.2+    990919 658  0.3+  0.1+    991016 658  0.2+  0.5+
990911 046  0.1-  0.1+    990919 658  0.1+  0.2+    991016 413  0.1+  0.1+
990911 046  0.0   0.0     990919 658  0.5+  0.1-    991016 413  0.2+  0.1+
990911 046  0.1-  0.2+    990920 848  0.4+  0.2-    991018 658  0.1+  0.2+
990911 719  1.7+  0.4-    990920 848  0.3+  0.0     991018 658  0.1-  0.3+
990911 719 (0.8+  3.4-)   990920 658  0.3-  0.1+    991018 658  0.2+  0.2+
990911 739  0.3+  1.0+    990920 658  0.0   0.0     991018 557  0.4+  0.3+
990911 739  0.4-  0.6+    990920 848  0.2-  0.3-    991018 557  0.2+  0.2-
990911 739 (2.8-  1.6+)   990920 658  0.1-  0.2+    991018 557  0.4-  0.1-
990911 848  0.3-  0.3+    990922 118  0.1+  0.1-    991018 557  0.2+  0.3+
990911 848  0.0   0.4+    990922 118  0.3+  0.1+    991018 557  0.3+  0.3-
990911 848  0.2+  0.1-    990924 046  0.1-  0.2+    991020 704  0.5+  0.4-
990911 848  0.0   0.5+    990924 046  0.3-  0.4+    991020 704  1.1+  0.2+
990911 848  0.2+  0.5+    990924 046  0.3-  0.2+    991020 704  0.7-  1.5-
990911 704  0.2+  0.0     990924 046  0.2-  0.5+    991020 704  0.1+  0.4-
990911 704  0.5+  0.1-    990927 402  0.1-  0.3-    991020 402  0.5-  0.5-
990911 704  0.1-  0.2+    990927 402  0.0   0.1-    991020 402  0.4-  0.4-
990911 704  0.4+  0.2+    990927 402  0.0   0.4-    991020 402  0.5-  0.4-
990911 704  0.3+  0.0     990928 848  0.0   0.3-    991104 711  0.4+  0.4+
990911 108 (2.1-  0.1+)   990928 848  0.8+  0.3-    991104 711  0.8+  0.4+
990911 108 (5.2+  4.5+)   991001 587  0.6-  0.0
990911 108 (0.6-  4.3-)   991001 587  0.1+  1.3-

Gareth V. Williams           (C) Copyright 2000 MPC           M.P.E.C. 2000-F44

Read MPEC 2000-F43 Read MPEC 2000-F45


MPEC number:

Enter an MPEC number in one of the following forms:

  • 1997-B01 (the full form)
  • J97B01 (the packed version of the full form)
  • B01 (the abbreviated form)

Valid HTML 4.01!